Flag for U.S.A. Weather past 2 weeks in Hollywood, Florida, U.S.A.

Now
84 °F

Passing clouds.


Feels Like: 91 °F
Forecast: 81 / 89 °F
Wind: 10 mph from Southeast

Location: Fort Lauderdale / Hollywood International Airport

Current Time: Jul 7, 2015 at 10:32:35 PM

Latest Report: Jul 7, 2015 at 9:53 PM


Visibility: 10 mi

Pressure: 30.12 "Hg

Humidity: 72%

Dew point: 74 °F

Location of HollywoodLocation

Historic Weather in Hollywood — Graph

°F

Hollywood temperature yesterday

Maximum temperature yesterday: 91 °F (at 2:53 PM)
Minimum temperature yesterday: 75 °F (at 1:53 AM)
Average temperature yesterday: 84 °F

Past Weeks' High & Low Weather Summary

 TemperatureHumidityPressure
High93 °F (Jun 29, 1:53 PM)94% (Jun 28, 2:53 PM)30.19 "Hg (Jun 28, 2:53 PM)
Low75 °F (Jun 29, 6:01 PM)49% (Jul 2, 2:53 PM)30.02 "Hg (Jun 27, 4:53 AM)
Average85 °F73%30.10 "Hg
* Reported Jun 22 8:53 PM — Jul 7 8:53 PM, Hollywood, Weather by CustomWeather, © 2015

Note: Actual official high and low records may vary slightly from our data, if they occured in-between our weather recording intervals... More about our weather records

Advertising

Hollywood weather history for previous 24 hours

 ConditionsComfort  
Time TempWeatherWind HumidityBarometerVisibility
8:53 PM
Tue, Jul 7
84 °FPartly sunny.7 mph72%30.12 "Hg10 mi
7:53 PM85 °FPartly sunny.7 mph68%30.13 "Hg10 mi
6:53 PM86 °FBroken clouds.9 mph67%30.11 "Hg10 mi
5:53 PM87 °FPartly sunny.16 mph65%30.08 "Hg10 mi
4:53 PM87 °FPartly sunny.15 mph69%30.09 "Hg10 mi
3:53 PM87 °FBroken clouds.12 mph67%30.14 "Hg10 mi
2:53 PM88 °FPartly sunny.12 mph67%30.15 "Hg10 mi
1:53 PM86 °FPartly sunny.10 mph72%30.16 "Hg10 mi
12:53 PM84 °FPartly sunny.7 mph77%30.17 "Hg10 mi
11:53 AM81 °FMostly cloudy.8 mph79%30.17 "Hg10 mi
10:53 AM84 °FScattered clouds.13 mph74%30.17 "Hg10 mi
9:53 AM84 °FPartly sunny.9 mph74%30.16 "Hg10 mi
8:53 AM84 °FPartly sunny.9 mph74%30.15 "Hg10 mi
7:53 AM83 °FPartly sunny.9 mph77%30.13 "Hg10 mi
6:53 AM82 °FPassing clouds.8 mph82%30.11 "Hg8 mi
5:53 AM82 °FPassing clouds.10 mph85%30.10 "Hg9 mi
4:57 AM83 °FPassing clouds.13 mph82%30.09 "Hg9 mi
3:53 AM83 °FPartly cloudy.8 mph82%30.09 "Hg9 mi
2:53 AM83 °FPassing clouds.8 mph79%30.09 "Hg9 mi
1:53 AM83 °FPassing clouds.10 mph79%30.09 "Hg9 mi
12:53 AM84 °FPassing clouds.14 mph77%30.10 "Hg9 mi
11:53 PM
Mon, Jul 6
84 °FPassing clouds.13 mph77%30.11 "Hg8 mi
10:53 PM84 °FPassing clouds.7 mph80%30.13 "Hg10 mi
Weather by CustomWeather, © 2015

See weather overviewHow to use our weather pages